Bellefonte, PA

1:19 AM EST on December 09, 2016 (GMT -0500)
University Park

Weather History for KUNV - February, 2013

Change the Weather History Date:

Monday, February 4, 2013

  Actual Average Record
Temperature  
Mean Temperature 20 °F -  
Max Temperature 26 °F 34 °F 58 °F (1991)
Min Temperature 15 °F 18 °F -3 °F (1955)
Degree Days  
Heating Degree Days 44    
Moisture  
Dew Point 13 °F    
Average Humidity 73    
Maximum Humidity 100    
Minimum Humidity 50    
Precipitation  
Precipitation 0.00 in - - ()
Sea Level Pressure  
Sea Level Pressure 29.89 in    
Wind  
Wind Speed 12 mph (West)    
Max Wind Speed 24 mph    
Max Gust Speed 24 mph    
Visibility 8 miles    
Events Snow    
Averages and records for this station are not official NWS values.
T = Trace of Precipitation, MM = Missing Value Source: NWS Daily Summary

Daily Weather History Graph

Daily Weather History Graph

Search for Another Location

Airport or City:

Trip Planner

Search our weather history database for the weather conditions in past years. The results will help you decide how hot, cold, wet, or windy it might be!

Date:

Astronomy

Feb. 04, 2013 Rise Set
Actual Time 7:18 AM EST 5:32 PM EST
Civil Twilight 6:49 AM EST 6:01 PM EST
Nautical Twilight 6:16 AM EST 6:34 PM EST
Astronomical Twilight 5:44 AM EST 7:06 PM EST
Moon 1:52 AM EST (2/4) 11:54 AM EST (2/4)
Length of Visible Light 11h 12m
Length of Day
10h 14m
Last Quarter, 37% of the Moon is Illuminated
Feb 4
Last Quarter
Feb 10
New
Feb 17
First Quarter
Feb 25
Full
Mar 4
Last Quarter

Hourly Weather History & Observations

Time (EST) Temp. Windchill Dew Point Humidity Pressure Visibility Wind Dir Wind Speed Gust Speed Precip Events Conditions
12:15 AM 18.1 °F 4.4 °F 10.2 °F 71% 29.89 in 7.0 mi West 13.8 mph - N/A Snow Light Snow
12:35 AM 17.6 °F 3.7 °F 9.0 °F 69% 29.90 in 7.0 mi West 13.8 mph - N/A   Overcast
12:55 AM 17.4 °F 1.5 °F 8.6 °F 68% 29.89 in 10.0 mi West 18.4 mph 24.2 mph N/A   Overcast
1:15 AM 17.6 °F 4.3 °F 9.1 °F 69% 29.89 in 10.0 mi WSW 12.7 mph - N/A   Overcast
1:35 AM 17.4 °F 1.9 °F 10.0 °F 73% 29.88 in 7.0 mi West 17.3 mph 23.0 mph N/A Snow Light Snow
1:55 AM 17.6 °F 3.2 °F 9.3 °F 70% 29.89 in 7.0 mi West 15.0 mph - N/A   Mostly Cloudy
2:15 AM 17.6 °F 2.7 °F 10.2 °F 73% 29.90 in 10.0 mi West 16.1 mph 21.9 mph N/A Snow Light Snow
2:55 AM 18.1 °F 5.0 °F 9.5 °F 69% 29.91 in 7.0 mi West 12.7 mph 20.7 mph N/A Snow Light Snow
3:15 AM 17.6 °F -0.3 °F 9.0 °F 69% 29.91 in 10.0 mi West 24.2 mph - N/A   Overcast
3:35 AM 17.4 °F 3.5 °F 8.4 °F 68% 29.91 in 10.0 mi West 13.8 mph 20.7 mph N/A   Overcast
3:55 AM 17.1 °F 2.0 °F 7.9 °F 67% 29.91 in 10.0 mi West 16.1 mph 23.0 mph N/A   Mostly Cloudy
4:15 AM 16.7 °F 1.0 °F 7.7 °F 68% 29.92 in 10.0 mi West 17.3 mph 23.0 mph N/A   Mostly Cloudy
6:53 AM 17.6 °F 3.7 °F 5.0 °F 58% 29.95 in 7.0 mi West 13.8 mph - N/A   Overcast
7:53 AM 15.8 °F 2.7 °F 5.0 °F 62% 29.96 in 10.0 mi WNW 11.5 mph 23.0 mph N/A   Mostly Cloudy
8:53 AM 17.6 °F 4.3 °F 5.0 °F 58% 29.97 in 10.0 mi West 12.7 mph 17.3 mph N/A   Mostly Cloudy
9:53 AM 19.4 °F 7.9 °F 6.8 °F 58% 29.96 in 10.0 mi West 10.4 mph 17.3 mph N/A   Mostly Cloudy
10:53 AM 21.2 °F 9.5 °F 8.6 °F 58% 29.95 in 10.0 mi West 11.5 mph 23.0 mph N/A   Mostly Cloudy
11:53 AM 23.0 °F 11.7 °F 6.8 °F 50% 29.93 in 10.0 mi WNW 11.5 mph - N/A   Mostly Cloudy
12:53 PM 24.8 °F 14.0 °F 10.4 °F 54% 29.91 in 10.0 mi West 11.5 mph - N/A   Mostly Cloudy
1:53 PM 24.8 °F 11.5 °F 10.4 °F 54% 29.90 in 10.0 mi West 17.3 mph - N/A   Overcast
2:53 PM 26.6 °F 16.2 °F 12.2 °F 55% 29.89 in 10.0 mi West 11.5 mph - N/A   Overcast
3:51 PM 26.6 °F 16.2 °F 14.0 °F 59% 29.87 in 10.0 mi West 11.5 mph - N/A   Mostly Cloudy
4:53 PM 26.6 °F 20.0 °F 12.2 °F 55% 29.87 in 10.0 mi West 5.8 mph - N/A   Overcast
5:53 PM 24.8 °F 19.1 °F 14.0 °F 64% 29.86 in 5.0 mi West 4.6 mph - N/A Snow Light Snow
6:53 PM 23.0 °F - 19.4 °F 86% 29.86 in 3.0 mi Calm Calm - N/A Snow Light Snow
7:18 PM 23.0 °F - 23.0 °F 100% 29.86 in 2.0 mi Calm Calm - N/A Snow Light Snow
7:53 PM 23.0 °F - 21.2 °F 93% 29.87 in 1.0 mi Calm Calm - N/A Snow Light Snow
8:53 PM 23.0 °F - 21.2 °F 93% 29.86 in 4.0 mi Calm Calm - N/A Snow Light Snow
9:55 PM 23.0 °F - 21.2 °F 93% 29.85 in 10.0 mi Calm Calm - N/A   Overcast
10:15 PM 23.0 °F - 21.4 °F 94% 29.84 in 10.0 mi Calm Calm - N/A   Overcast
10:35 PM 23.0 °F - 21.2 °F 93% 29.84 in 10.0 mi Calm Calm - N/A   Overcast
10:55 PM 23.0 °F 18.4 °F 21.2 °F 93% 29.84 in 10.0 mi East 3.5 mph - N/A   Overcast
11:15 PM 23.4 °F - 21.6 °F 93% 29.83 in 10.0 mi Calm Calm - N/A   Overcast
11:35 PM 23.4 °F - 21.7 °F 94% 29.84 in 7.0 mi Calm Calm - N/A   Overcast
11:55 PM 23.4 °F - 21.7 °F 94% 29.83 in 5.0 mi Calm Calm - N/A   Overcast